Time,TemperatureF,DewpointF,PressureIn,WindDirection,WindDirectionDegrees,WindSpeedMPH,WindSpeedGustMPH,Humidity,HourlyPrecipIn,Conditions,Clouds,dailyrainin,SolarRadiationWatts/m^2,SoftwareType,DateUTC
2013-04-26 00:00:00,38.0,27.0,-100.00,NNE,22,3.0,-999.0,62,-99.99,,,-99.99,0.000000,,2013-04-26 04:00:00,
2013-04-26 00:43:00,38.0,27.0,-100.00,NNE,22,3.0,-999.0,62,-99.99,,,-99.99,0.000000,,2013-04-26 04:43:00,
2013-04-26 00:53:00,38.0,27.0,-100.00,NNE,22,3.0,-999.0,62,-99.99,,,-99.99,0.000000,,2013-04-26 04:53:00,
2013-04-26 01:00:00,38.0,26.0,-100.00,NNE,22,4.0,-999.0,60,-99.99,,,-99.99,0.000000,,2013-04-26 05:00:00,
2013-04-26 01:42:00,38.0,26.0,-100.00,NNE,22,4.0,-999.0,60,-99.99,,,-99.99,0.000000,,2013-04-26 05:42:00,
2013-04-26 01:52:00,38.0,26.0,-100.00,NNE,22,4.0,-999.0,60,-99.99,,,-99.99,0.000000,,2013-04-26 05:52:00,
2013-04-26 02:00:00,38.0,26.0,-100.00,NNE,22,4.0,-999.0,60,-99.99,,,-99.99,0.000000,,2013-04-26 06:00:00,
2013-04-26 02:42:00,38.0,26.0,-100.00,NNE,22,4.0,-999.0,60,-99.99,,,-99.99,0.000000,,2013-04-26 06:42:00,
2013-04-26 02:52:00,38.0,26.0,-100.00,NNE,22,4.0,-999.0,60,-99.99,,,-99.99,0.000000,,2013-04-26 06:52:00,
2013-04-26 03:00:00,38.0,26.0,-100.00,NNE,22,4.0,-999.0,62,-99.99,,,-99.99,0.000000,,2013-04-26 07:00:00,
2013-04-26 03:42:00,38.0,26.0,-100.00,NNE,22,4.0,-999.0,62,-99.99,,,-99.99,0.000000,,2013-04-26 07:42:00,
2013-04-26 03:52:00,38.0,26.0,-100.00,NNE,22,4.0,-999.0,62,-99.99,,,-99.99,0.000000,,2013-04-26 07:52:00,
2013-04-26 04:00:00,37.0,26.0,-100.00,NNE,22,4.0,-999.0,63,-99.99,,,-99.99,0.000000,,2013-04-26 08:00:00,
2013-04-26 04:42:00,37.0,26.0,-100.00,NNE,22,4.0,-999.0,63,-99.99,,,-99.99,0.000000,,2013-04-26 08:42:00,
2013-04-26 04:52:00,37.0,26.0,-100.00,NNE,22,4.0,-999.0,63,-99.99,,,-99.99,0.000000,,2013-04-26 08:52:00,
2013-04-26 05:00:00,36.0,26.0,-100.00,NNE,22,4.0,-999.0,64,-99.99,,,-99.99,0.000000,,2013-04-26 09:00:00,
2013-04-26 05:43:00,36.0,26.0,-100.00,NNE,22,4.0,-999.0,64,-99.99,,,-99.99,0.000000,,2013-04-26 09:43:00,
2013-04-26 05:53:00,36.0,26.0,-100.00,NNE,22,4.0,-999.0,64,-99.99,,,-99.99,0.000000,,2013-04-26 09:53:00,
2013-04-26 06:00:00,36.0,26.0,-100.00,NNE,22,4.0,-999.0,66,-99.99,,,-99.99,0.000000,,2013-04-26 10:00:00,
2013-04-26 06:42:00,36.0,26.0,-100.00,NNE,22,4.0,-999.0,66,-99.99,,,-99.99,0.000000,,2013-04-26 10:42:00,
2013-04-26 06:52:00,36.0,26.0,-100.00,NNE,22,4.0,-999.0,66,-99.99,,,-99.99,0.000000,,2013-04-26 10:52:00,
2013-04-26 09:00:00,41.0,28.0,-100.00,NE,45,7.0,-999.0,58,-99.99,,,-99.99,192.559998,,2013-04-26 13:00:00,
2013-04-26 09:42:00,41.0,28.0,-100.00,NE,45,7.0,-999.0,58,-99.99,,,-99.99,192.559998,,2013-04-26 13:42:00,
2013-04-26 09:52:00,41.0,28.0,-100.00,NE,45,7.0,-999.0,58,-99.99,,,-99.99,192.559998,,2013-04-26 13:52:00,
2013-04-26 10:00:00,47.0,29.0,-100.00,NE,45,8.0,-999.0,50,-99.99,,,-99.99,345.679993,,2013-04-26 14:00:00,
2013-04-26 10:42:00,47.0,29.0,-100.00,NE,45,8.0,-999.0,50,-99.99,,,-99.99,345.679993,,2013-04-26 14:42:00,
2013-04-26 10:52:00,47.0,29.0,-100.00,NE,45,8.0,-999.0,50,-99.99,,,-99.99,345.679993,,2013-04-26 14:52:00,
2013-04-26 11:00:00,51.0,29.0,-100.00,NE,45,11.0,-999.0,42,-99.99,,,-99.99,486.040009,,2013-04-26 15:00:00,
2013-04-26 11:43:00,51.0,29.0,-100.00,NE,45,11.0,-999.0,42,-99.99,,,-99.99,486.040009,,2013-04-26 15:43:00,
2013-04-26 11:53:00,51.0,29.0,-100.00,NE,45,11.0,-999.0,42,-99.99,,,-99.99,486.040009,,2013-04-26 15:53:00,
2013-04-26 12:00:00,54.0,29.0,-100.00,NE,45,11.0,-999.0,37,-99.99,,,-99.99,546.359985,,2013-04-26 16:00:00,
2013-04-26 12:42:00,54.0,29.0,-100.00,NE,45,11.0,-999.0,37,-99.99,,,-99.99,546.359985,,2013-04-26 16:42:00,
2013-04-26 12:53:00,54.0,29.0,-100.00,NE,45,11.0,-999.0,37,-99.99,,,-99.99,546.359985,,2013-04-26 16:53:00,
2013-04-26 15:00:00,62.0,33.0,-100.00,NE,45,12.0,-999.0,33,-99.99,,,-99.99,705.280029,,2013-04-26 19:00:00,
2013-04-26 15:42:00,62.0,33.0,-100.00,NE,45,12.0,-999.0,33,-99.99,,,-99.99,705.280029,,2013-04-26 19:42:00,
2013-04-26 15:52:00,62.0,33.0,-100.00,NE,45,12.0,-999.0,33,-99.99,,,-99.99,705.280029,,2013-04-26 19:52:00,
2013-04-26 16:00:00,63.0,34.0,-100.00,ENE,67,12.0,-999.0,33,-99.99,,,-99.99,620.599976,,2013-04-26 20:00:00,
2013-04-26 16:42:00,63.0,34.0,-100.00,ENE,67,12.0,-999.0,33,-99.99,,,-99.99,620.599976,,2013-04-26 20:42:00,
2013-04-26 16:52:00,63.0,34.0,-100.00,ENE,67,12.0,-999.0,33,-99.99,,,-99.99,620.599976,,2013-04-26 20:52:00,
2013-04-26 17:00:00,64.0,34.0,-100.00,ENE,67,11.0,-999.0,32,-99.99,,,-99.99,547.520020,,2013-04-26 21:00:00,
2013-04-26 17:42:00,64.0,34.0,-100.00,ENE,67,11.0,-999.0,32,-99.99,,,-99.99,547.520020,,2013-04-26 21:42:00,
2013-04-26 17:53:00,64.0,34.0,-100.00,ENE,67,11.0,-999.0,32,-99.99,,,-99.99,547.520020,,2013-04-26 21:53:00,
2013-04-26 18:00:00,64.0,34.0,-100.00,ENE,67,11.0,-999.0,32,-99.99,,,-99.99,412.959991,,2013-04-26 22:00:00,
2013-04-26 18:42:00,64.0,34.0,-100.00,ENE,67,11.0,-999.0,32,-99.99,,,-99.99,412.959991,,2013-04-26 22:42:00,
2013-04-26 18:52:00,64.0,34.0,-100.00,ENE,67,11.0,-999.0,32,-99.99,,,-99.99,412.959991,,2013-04-26 22:52:00,
2013-04-26 19:00:00,64.0,35.0,-100.00,ENE,67,10.0,-999.0,33,-99.99,,,-99.99,274.920013,,2013-04-26 23:00:00,
2013-04-26 19:42:00,64.0,35.0,-100.00,ENE,67,10.0,-999.0,33,-99.99,,,-99.99,274.920013,,2013-04-26 23:42:00,
2013-04-26 19:52:00,64.0,35.0,-100.00,ENE,67,10.0,-999.0,33,-99.99,,,-99.99,274.920013,,2013-04-26 23:52:00,
2013-04-26 20:00:00,63.0,36.0,-100.00,ENE,67,9.0,-999.0,36,-99.99,,,-99.99,125.279999,,2013-04-27 00:00:00,
2013-04-26 20:42:00,63.0,36.0,-100.00,ENE,67,9.0,-999.0,36,-99.99,,,-99.99,125.279999,,2013-04-27 00:42:00,
2013-04-26 20:52:00,63.0,36.0,-100.00,ENE,67,9.0,-999.0,36,-99.99,,,-99.99,125.279999,,2013-04-27 00:52:00,
2013-04-26 21:00:00,59.0,37.0,-100.00,ENE,67,6.0,-999.0,43,-99.99,,,-99.99,15.080000,,2013-04-27 01:00:00,
2013-04-26 21:42:00,59.0,37.0,-100.00,ENE,67,6.0,-999.0,43,-99.99,,,-99.99,15.080000,,2013-04-27 01:42:00,
2013-04-26 21:52:00,59.0,37.0,-100.00,ENE,67,6.0,-999.0,43,-99.99,,,-99.99,15.080000,,2013-04-27 01:52:00,